Wind_Speed
36 36 36 35 35 34 33 31 29 28 26 25 25 26 25 23 21 19 18 17 17 15 15 15 15 16 18 19 17 17 16 15 16 16 17 18 17 16 16 15 14 13 13 12 12 11 10 10 10 10 10 11 11 11 11 10 9 7 6 6 5 4 2 1 2 1 1 4 6 8 11 14 15 16 18 21 23 22 19 19 18 17 18 18 17
38 37 36 35 35 34 33 30 29 29 28 26 27 27 26 24 22 20 18 17 16 15 14 14 14 15 18 18 17 16 16 15 16 17 18 18 18 17 16 15 15 14 13 13 12 11 11 10 10 10 10 11 11 12 11 10 10 8 7 7 6 4 2 0 2 1 3 5 7 10 13 15 15 16 19 22 23 22 21 20 18 18 18 17 18
39 37 36 36 35 34 33 31 31 31 29 28 28 27 25 24 22 20 18 17 16 15 15 14 14 15 17 17 16 16 16 16 17 18 19 18 18 17 16 15 15 14 13 13 12 11 11 11 10 10 10 11 11 11 10 9 9 9 7 6 4 3 2 1 2 3 6 8 10 12 14 15 15 17 19 20 22 23 23 20 19 17 17 18 19
39 38 37 36 35 34 33 32 33 32 30 29 29 27 26 24 22 20 19 17 16 16 16 13 13 16 17 17 17 16 17 18 18 19 19 19 18 17 16 16 15 14 13 12 12 11 11 11 11 11 11 10 10 10 9 8 8 7 5 3 2 2 1 2 3 4 6 8 9 10 13 15 15 17 19 20 22 24 22 19 19 17 16 19 21
40 39 38 37 36 34 34 34 34 33 31 31 30 29 27 24 22 20 19 18 17 17 15 13 14 16 16 17 17 17 18 19 19 19 19 19 19 17 16 16 15 14 14 13 12 12 12 12 12 11 11 11 11 10 9 8 7 6 4 2 1 1 2 3 4 5 6 7 7 8 11 14 14 16 18 20 23 24 21 17 19 21 18 17 21
40 40 39 39 37 35 35 36 35 33 32 31 31 29 26 24 22 21 19 17 17 17 15 14 16 16 16 17 18 18 19 19 19 20 20 20 19 17 16 16 16 15 14 14 13 13 13 12 12 12 11 11 11 10 9 8 7 6 4 2 1 2 2 4 5 6 7 6 6 8 10 13 15 16 18 21 23 25 23 18 18 23 23 20 21
41 41 41 40 38 36 38 37 35 34 33 31 30 28 25 23 21 20 18 17 17 17 15 15 16 17 17 18 18 19 20 20 20 20 21 21 20 18 18 17 17 16 15 14 14 14 13 12 11 11 10 9 9 9 8 7 5 4 3 2 1 1 2 4 6 7 8 7 7 9 11 12 15 16 18 21 23 26 28 27 24 25 26 25 24
42 42 42 41 38 38 39 37 35 34 32 32 31 28 25 23 21 19 18 17 18 18 16 16 18 18 18 19 19 20 20 20 21 21 21 21 20 19 19 18 17 16 15 15 14 13 12 11 10 10 9 9 10 9 8 7 5 4 4 2 1 1 2 4 6 7 9 9 10 11 12 12 14 15 18 23 26 27 30 32 32 31 30 28 26
44 43 43 41 39 39 39 37 35 34 33 33 32 29 26 23 20 19 19 19 19 19 18 17 19 19 19 20 20 20 21 21 21 22 22 22 21 20 19 18 18 17 16 16 15 13 11 11 11 10 10 11 11 11 9 8 6 5 4 2 1 1 2 4 6 8 10 11 12 13 14 14 14 16 19 23 26 27 29 30 32 34 34 31 28
44 43 42 40 39 40 38 37 36 34 34 34 32 30 27 24 22 21 20 20 20 21 19 19 20 20 21 21 21 21 21 21 21 22 22 21 21 21 20 19 18 17 16 16 14 12 12 12 12 12 13 13 12 12 10 8 8 6 4 3 1 1 2 4 6 8 10 13 14 15 15 14 14 16 18 21 22 24 27 28 29 33 36 34 32
44 43 41 39 39 39 38 37 36 35 35 35 32 30 28 26 24 23 22 22 21 21 21 21 21 21 21 22 21 21 21 21 21 21 22 21 21 21 20 20 19 17 17 15 14 13 13 14 14 14 14 13 13 12 11 9 8 7 5 3 3 2 2 4 7 9 11 13 15 16 15 14 14 16 17 18 20 23 26 28 27 30 34 34 34
46 44 41 39 39 39 38 38 37 37 36 35 33 31 30 27 26 24 24 22 22 22 22 22 22 22 22 22 22 21 20 20 20 21 21 21 21 20 20 20 18 17 17 16 14 14 14 15 15 15 14 14 13 13 11 10 9 7 5 4 4 3 2 4 6 9 12 14 16 15 13 12 14 16 17 18 20 22 26 27 26 27 31 32 34
46 44 41 40 39 38 37 38 39 39 37 35 34 33 31 29 27 26 24 23 23 23 23 23 23 23 24 23 22 21 20 19 20 21 21 20 20 20 19 19 18 17 17 17 15 14 15 16 16 15 15 15 14 14 12 11 9 7 6 5 5 4 3 2 5 9 12 15 17 16 12 11 13 16 16 17 20 22 24 26 26 26 28 31 33
44 42 41 40 39 38 38 39 40 40 37 35 36 35 33 30 28 25 24 24 25 24 24 24 24 25 25 24 23 22 21 20 20 21 21 20 19 19 19 19 18 18 18 17 16 15 15 16 15 15 15 15 15 15 13 10 9 7 6 5 5 5 5 4 5 9 12 14 17 16 11 9 13 15 15 15 18 20 23 25 26 26 28 30 32
43 41 41 40 40 39 39 40 41 39 37 37 38 37 34 32 28 25 24 25 26 25 26 26 25 26 26 25 25 24 22 22 21 21 21 19 18 18 19 19 19 18 18 18 18 17 16 16 15 15 16 16 16 14 12 11 10 9 8 7 5 5 5 5 6 9 11 13 16 15 11 10 12 14 14 14 16 19 21 22 23 25 29 30 30
43 43 43 43 42 40 40 42 42 39 37 39 40 39 35 32 29 25 24 25 25 26 27 27 26 27 27 26 26 25 24 23 22 22 22 20 19 19 19 19 19 19 19 19 19 17 17 16 17 17 17 17 16 15 13 13 12 10 8 7 5 5 6 6 7 8 10 13 15 13 10 10 12 12 12 13 15 17 19 20 20 23 29 30 29
44 44 45 44 42 39 40 41 41 39 39 41 42 39 36 32 29 25 24 25 26 28 28 28 28 28 29 28 27 26 25 23 21 21 23 22 21 22 21 20 20 20 20 20 20 18 17 16 16 17 17 17 16 15 15 14 12 11 9 6 6 7 8 8 8 9 10 13 14 10 7 8 10 10 11 13 14 16 19 20 20 23 28 30 30
44 45 45 43 41 41 41 40 40 40 40 42 41 38 35 33 29 26 25 25 27 29 29 29 29 30 30 29 28 26 25 22 20 21 23 22 21 23 23 22 22 21 21 21 21 20 17 16 16 16 16 15 14 14 15 14 12 11 9 7 7 8 9 9 9 10 11 11 11 7 4 7 9 9 11 13 13 16 20 19 19 23 27 28 29
44 45 44 43 43 42 41 39 39 39 41 42 41 38 36 34 31 28 26 25 26 28 30 31 31 31 31 30 28 27 26 22 20 21 22 22 22 24 25 25 24 24 23 22 22 21 19 18 18 18 17 14 12 12 13 14 13 12 10 9 9 8 8 8 9 9 10 9 8 6 3 6 8 9 12 13 12 15 18 16 18 24 24 25 29
42 43 41 40 39 37 37 38 38 40 42 42 40 39 37 35 31 28 26 26 26 28 30 32 32 32 32 31 31 29 26 22 21 21 21 22 24 26 28 28 26 25 24 23 22 21 20 20 20 19 18 16 14 13 12 13 13 12 11 11 9 8 8 9 10 10 10 8 6 4 4 6 7 9 13 12 9 12 14 13 18 22 21 24 27
38 39 36 35 33 33 36 38 38 39 41 40 38 38 38 36 32 29 28 28 27 29 32 32 33 33 33 32 31 29 26 23 21 21 21 22 25 28 29 29 27 25 24 23 22 20 19 19 19 18 18 17 16 15 14 14 14 13 12 11 10 9 9 9 10 10 9 7 4 2 4 6 7 8 12 11 8 10 13 13 17 19 19 22 25
36 36 34 32 32 32 36 38 37 38 39 37 37 38 38 35 32 31 30 29 28 30 31 32 33 34 33 32 30 28 27 24 22 21 21 22 24 28 30 30 28 26 25 24 21 19 18 17 17 16 16 16 16 16 16 15 15 13 12 12 11 9 9 9 10 10 8 6 4 2 4 6 7 8 11 11 8 10 13 14 15 17 18 20 21
38 37 35 34 34 35 37 38 38 38 38 36 37 39 38 35 34 34 33 31 29 29 30 32 34 34 33 32 30 28 28 27 23 22 22 21 23 27 30 31 30 28 26 23 21 19 18 17 16 15 14 15 16 16 16 16 15 14 13 13 12 10 10 10 9 9 8 6 4 3 4 5 6 8 11 12 10 11 15 15 14 16 18 18 18
38 36 36 37 38 38 38 37 36 36 36 37 38 40 39 38 37 37 35 32 29 29 31 33 34 34 32 32 31 31 30 28 25 23 22 22 22 26 29 31 31 30 27 24 22 21 20 19 18 16 15 15 15 15 16 16 15 14 14 14 13 11 10 10 9 9 8 6 4 5 4 4 5 7 11 13 11 11 14 14 13 15 16 17 18
36 36 38 40 39 37 36 35 33 33 35 37 38 39 40 39 38 37 34 31 30 30 32 33 33 32 32 32 32 32 31 28 26 25 24 22 22 24 28 30 31 30 28 26 24 24 23 22 20 17 16 15 16 16 17 16 15 15 15 15 14 11 10 10 9 8 7 4 4 4 3 3 4 7 11 12 11 11 13 13 13 15 16 16 18
37 38 40 40 38 36 35 35 34 34 35 37 38 39 39 39 37 35 33 30 29 30 31 31 31 31 32 32 32 32 31 29 27 25 24 23 22 23 26 28 30 31 30 28 27 26 25 24 22 20 19 18 19 19 18 16 15 15 16 16 14 11 10 10 9 8 6 5 5 5 3 3 6 9 11 12 10 11 13 12 13 15 15 16 19
39 40 40 38 37 38 38 37 36 35 36 37 37 38 38 37 35 33 31 29 29 29 30 30 29 30 30 30 30 30 29 28 27 25 23 24 24 24 25 27 30 32 33 31 29 27 26 25 23 22 21 21 22 21 19 17 16 16 17 16 13 11 10 10 10 8 6 6 8 8 6 5 7 10 13 13 12 12 12 12 12 14 13 14 18
40 41 40 38 38 38 37 35 34 34 35 35 36 36 37 36 34 31 28 27 27 27 27 28 28 28 27 27 27 27 27 27 26 23 22 23 24 25 26 27 30 33 35 34 32 30 28 27 25 24 24 24 24 23 21 19 17 17 17 16 13 11 9 10 11 10 8 7 8 8 8 8 9 12 15 16 14 12 11 10 11 12 12 14 17
40 40 40 40 39 37 34 32 32 33 34 35 35 35 34 33 31 29 26 24 23 22 23 25 26 25 25 25 25 26 26 25 22 19 19 21 22 24 26 27 28 31 33 34 34 32 31 30 29 27 27 26 25 24 22 20 18 18 18 16 14 12 10 10 12 10 9 9 9 9 8 8 9 12 16 17 15 13 11 9 11 12 13 16 17
39 39 41 42 40 36 32 31 32 33 33 35 35 34 34 31 29 27 25 23 22 21 21 21 21 21 22 23 23 22 21 20 18 17 18 18 19 20 22 23 25 28 30 33 35 35 34 33 32 30 29 28 27 26 23 21 20 19 18 17 15 14 12 11 12 12 11 12 11 10 9 10 11 13 16 17 15 12 10 9 12 14 15 16 17
37 39 40 41 38 34 31 30 31 32 33 34 34 34 34 32 29 26 24 22 21 20 20 20 19 20 20 19 19 19 19 19 19 18 17 17 17 17 18 19 22 24 28 32 35 36 36 35 33 32 31 29 28 27 25 23 21 20 19 18 17 17 16 13 12 12 12 12 10 11 13 15 15 15 15 14 13 11 10 9 12 15 15 14 14
35 36 36 35 32 29 26 25 28 30 32 33 33 34 34 32 29 27 26 23 21 20 20 20 19 18 17 16 17 18 19 19 19 18 17 17 16 16 15 16 18 21 25 30 34 36 36 35 33 32 30 30 29 27 25 23 21 20 19 19 19 19 18 15 13 13 15 15 15 15 16 15 13 13 12 11 11 11 11 11 14 16 14 13 14
33 32 32 31 29 25 22 22 24 29 33 33 32 31 31 31 31 31 28 25 22 21 20 20 18 17 17 18 17 17 18 18 18 18 18 17 16 15 14 14 15 18 23 29 32 33 33 33 32 30 29 29 29 27 25 23 22 21 20 19 18 18 17 15 15 17 18 18 17 16 15 14 13 13 12 12 12 13 13 14 17 17 13 13 16
31 29 28 27 26 25 23 23 22 25 30 32 30 29 32 34 35 32 29 26 25 24 22 21 21 20 20 20 19 18 19 20 20 19 18 17 15 14 14 14 15 18 23 27 29 30 30 30 29 29 29 29 28 26 25 24 22 21 20 18 17 16 15 15 15 15 15 14 14 14 15 15 14 13 13 14 14 14 14 17 18 16 12 14 18
31 29 27 27 27 25 24 23 23 24 27 30 31 31 34 35 35 31 28 26 27 26 26 25 24 23 23 22 21 21 21 21 21 20 18 17 16 16 17 18 19 22 24 27 28 28 27 27 28 28 28 28 27 26 24 23 22 21 20 18 17 16 15 14 14 15 15 15 15 15 15 15 14 14 15 15 15 16 18 19 17 13 12 15 18
30 28 28 29 26 23 21 21 22 23 26 28 30 31 33 34 33 31 29 28 28 28 26 25 23 22 22 23 23 23 23 23 22 20 19 18 18 19 20 21 22 23 25 26 27 27 27 27 28 28 28 28 27 25 24 23 22 21 19 18 17 15 14 15 16 16 15 15 15 16 16 17 16 17 17 17 17 19 20 17 13 11 12 16 17
25 25 26 27 24 20 17 17 18 21 25 29 31 32 33 33 33 32 30 29 29 29 26 24 23 23 23 24 24 25 26 25 23 21 20 20 21 22 22 23 23 23 24 25 26 26 27 27 28 28 27 27 26 25 24 24 23 21 18 17 16 16 17 18 18 17 15 15 16 16 16 16 17 17 17 18 17 16 14 12 12 13 14 14 15
20 21 23 24 21 18 15 14 15 18 22 26 29 30 32 33 33 32 31 29 29 28 26 24 24 23 23 24 25 26 27 27 26 25 24 24 24 24 24 24 23 24 24 24 24 25 26 27 27 27 27 26 25 25 25 25 24 22 19 18 17 17 18 18 16 15 15 15 16 16 16 17 17 18 18 17 15 13 12 12 12 13 12 12 14
20 21 22 21 20 17 15 14 15 17 20 24 26 28 30 31 31 30 29 29 28 26 25 25 24 24 24 25 26 26 27 28 28 28 28 28 27 27 26 25 25 25 25 25 25 25 25 26 26 26 26 26 26 26 26 25 23 21 19 19 19 19 18 16 14 14 15 16 17 17 18 18 18 17 17 16 15 15 15 14 13 13 14 15 17
20 20 20 19 18 16 14 14 15 17 20 23 26 27 28 29 28 28 28 28 27 26 25 25 24 24 24 25 25 25 25 26 26 27 29 29 29 28 28 27 26 26 26 25 26 26 26 26 26 26 26 26 26 25 25 24 22 20 19 19 20 20 19 18 17 16 16 16 17 18 18 18 18 17 17 17 17 17 17 17 17 16 17 17 18
17 18 19 18 17 16 14 14 15 16 19 22 25 27 27 27 26 26 26 27 27 26 25 24 23 22 21 22 22 21 21 21 22 23 25 26 28 29 30 29 28 27 26 25 25 26 26 26 26 25 25 25 24 24 23 21 19 17 15 15 16 17 16 15 15 15 15 16 17 18 18 18 19 19 18 18 18 17 16 15 15 15 15 15 16
18 18 17 17 16 15 15 14 14 15 18 21 24 25 26 27 26 26 26 27 27 26 24 23 22 21 20 19 18 17 16 17 18 18 19 20 21 23 25 27 28 28 26 25 24 25 26 26 25 25 25 23 21 19 17 16 15 14 13 12 12 13 13 13 13 14 14 15 17 18 19 19 20 21 21 20 18 17 16 15 15 15 16 16 17
18 17 15 14 14 15 15 16 17 18 20 21 23 25 27 27 28 28 28 28 27 26 24 23 23 21 19 17 16 15 15 15 16 17 17 17 17 16 17 18 21 23 24 24 24 25 25 26 26 25 24 22 20 17 16 16 17 17 17 15 13 13 14 14 15 15 15 15 17 18 19 20 20 21 21 20 18 17 16 15 16 16 16 17 18
14 14 11 10 11 12 13 14 16 18 20 22 24 26 27 28 29 29 29 29 29 27 26 25 24 22 20 18 17 17 17 17 17 18 19 19 18 16 15 15 16 18 20 22 24 25 26 27 27 25 25 23 21 20 21 20 18 18 19 19 17 16 17 17 17 17 16 16 16 17 18 18 19 18 17 16 16 16 16 15 15 16 17 18 18
11 12 11 11 12 12 12 12 12 14 17 20 23 25 27 28 29 29 30 30 31 30 29 26 24 22 21 20 19 19 18 17 17 18 19 19 18 17 17 17 17 17 17 19 21 24 27 28 28 28 27 26 24 25 25 22 18 17 19 21 20 20 21 19 17 16 15 15 15 16 17 18 18 17 16 14 13 14 14 14 14 15 16 17 18
13 14 15 16 17 17 15 14 14 14 15 17 19 22 26 28 29 29 29 29 30 29 28 26 24 24 23 22 21 20 19 18 17 18 19 19 19 18 18 19 19 19 18 18 19 21 24 27 28 29 28 28 26 27 27 24 20 17 19 22 23 23 21 18 16 15 16 15 15 16 17 18 19 19 19 17 15 14 15 15 15 15 17 19 21
13 15 15 16 18 20 19 15 14 14 14 14 16 18 21 24 26 27 28 27 27 27 27 27 28 28 26 24 23 23 23 21 21 20 20 19 20 20 20 20 21 21 19 17 16 17 19 21 23 25 26 27 27 27 27 27 24 21 21 22 24 22 19 17 17 17 17 18 18 18 18 19 20 20 21 20 18 16 15 15 16 18 21 22 23
11 13 13 13 15 18 17 14 13 14 15 16 17 17 17 18 20 23 25 25 24 24 26 29 30 30 28 27 26 26 25 23 21 20 20 19 19 20 20 20 21 21 20 18 16 15 14 15 16 18 21 24 26 27 27 27 26 25 25 25 25 23 21 21 21 21 21 21 20 20 19 20 19 18 18 17 17 16 16 16 18 21 23 23 24
12 13 13 12 13 14 13 12 14 16 17 18 18 18 18 18 18 20 22 24 24 24 24 26 28 29 28 28 28 28 26 24 22 21 20 20 19 19 19 19 19 20 21 20 18 16 16 15 15 16 17 19 22 24 24 25 25 26 26 26 25 22 20 20 21 21 21 20 20 20 21 21 20 19 18 17 16 16 17 20 22 23 23 23 23
10 12 12 12 12 11 10 11 13 14 15 16 17 17 17 18 18 19 21 24 25 25 25 25 26 26 26 27 28 28 27 26 24 23 22 20 19 19 17 17 18 19 20 20 20 20 19 19 18 18 17 17 18 20 21 21 22 22 22 22 21 19 18 18 19 19 19 18 19 20 21 21 21 22 21 20 19 19 21 22 23 23 23 23 23
9 12 14 13 12 12 11 12 13 12 13 14 16 17 17 17 17 19 21 23 25 26 26 26 25 25 24 25 25 26 25 24 24 24 23 22 21 20 18 17 17 18 20 22 23 23 23 22 21 20 18 17 17 18 19 19 19 19 19 20 20 20 19 19 19 19 19 19 19 20 20 20 20 22 22 21 21 22 22 22 23 23 23 24 23
Wind_Direction
208 207 205 205 207 209 210 209 207 206 206 207 203 199 199 202 205 210 218 226 232 237 240 237 234 227 215 210 213 214 213 212 209 206 203 202 203 203 203 202 203 202 200 199 197 195 193 193 193 189 185 184 183 186 189 191 192 190 185 178 170 164 159 188 258 256 319 335 351 13 10 359 353 342 335 337 342 350 3 3 357 357 356 359 12
207 205 203 204 208 211 210 206 202 202 204 204 200 199 202 205 207 212 220 227 234 243 246 242 235 221 209 206 209 211 212 211 209 206 204 204 204 203 204 204 204 202 201 200 199 196 195 195 196 195 194 193 192 194 196 194 189 185 184 180 171 162 151 192 279 311 17 14 14 17 8 356 345 335 334 338 341 352 5 3 358 0 1 5 15
206 204 204 205 208 210 209 205 201 200 201 201 200 202 206 209 211 214 220 227 238 248 247 241 226 209 202 202 206 209 211 211 209 207 205 205 206 205 205 205 206 205 204 204 202 198 196 197 198 198 198 199 199 202 204 199 191 190 191 191 182 161 133 337 314 349 11 13 14 11 359 346 336 332 336 340 345 357 6 2 359 2 6 13 18
206 205 205 207 209 211 208 203 200 200 200 199 201 204 209 212 213 214 219 229 243 248 241 227 210 201 199 201 205 208 211 211 209 207 206 207 209 209 207 206 207 207 206 206 203 199 199 200 200 201 202 202 203 204 205 200 192 194 198 195 175 136 85 341 336 1 4 0 6 4 347 333 329 333 339 347 354 0 4 3 3 7 13 17 19
205 204 205 207 210 210 206 200 200 201 200 199 202 207 212 213 211 212 218 230 243 244 230 210 200 200 199 202 206 209 211 212 210 207 206 208 210 212 210 208 208 207 206 206 204 201 201 204 204 206 206 204 202 203 201 197 194 197 199 183 134 67 22 348 346 6 6 352 350 349 334 326 333 342 349 357 2 1 5 10 13 15 16 16 17
203 203 204 206 207 207 203 200 202 203 201 201 205 211 215 214 210 212 221 234 241 232 216 202 199 199 200 204 208 210 211 212 211 209 208 209 211 211 210 209 209 209 209 208 207 205 205 208 210 211 211 206 204 204 200 198 202 204 196 168 103 29 7 357 1 14 16 0 336 334 332 332 343 354 1 8 9 7 10 15 19 19 17 13 11
201 203 204 205 204 204 202 202 203 203 203 206 209 215 218 214 211 217 228 238 236 221 207 200 200 200 203 206 209 211 212 212 211 211 211 211 212 211 210 210 211 211 212 211 210 210 210 213 215 215 214 206 202 205 206 204 210 212 198 173 117 29 11 13 18 21 19 8 346 341 342 345 352 1 10 15 16 17 16 13 12 14 15 14 11
201 201 202 203 203 202 201 203 203 202 205 209 213 218 217 212 213 221 233 242 233 215 206 202 200 202 206 209 211 211 213 214 213 212 212 212 213 213 212 213 214 213 213 212 213 213 212 214 215 213 210 202 198 202 204 201 200 199 195 186 161 14 9 19 23 21 17 12 1 353 353 358 2 7 14 17 17 20 19 14 10 9 8 12 15
199 199 200 201 201 200 200 200 201 203 208 211 215 220 215 209 213 220 234 243 229 210 205 204 202 203 207 210 212 212 214 215 215 214 214 213 214 216 215 216 216 215 214 215 216 214 211 212 211 206 201 198 198 201 201 200 201 200 199 195 203 336 357 13 18 18 15 12 8 2 1 6 10 10 14 18 17 15 15 12 11 10 7 7 14
196 198 198 198 199 198 198 199 201 206 210 210 215 219 211 206 213 222 234 237 221 206 203 204 204 205 208 210 212 213 214 216 216 216 217 218 219 218 217 216 217 217 217 219 219 212 208 208 207 203 200 200 202 204 204 205 207 204 204 208 229 306 347 6 13 15 14 11 8 4 3 9 16 14 12 15 14 10 9 7 6 8 7 6 12
198 200 198 197 198 198 200 202 204 207 209 210 215 215 207 205 212 222 233 230 213 204 204 204 205 207 209 211 213 214 215 216 217 217 219 221 221 220 218 217 217 217 219 221 219 212 207 207 205 202 202 204 205 206 207 211 211 211 215 229 248 282 340 4 10 13 13 10 6 1 1 9 17 17 12 8 7 7 7 5 1 2 4 2 2
198 200 201 200 200 201 202 203 204 206 207 211 214 209 203 205 212 222 231 223 207 204 205 204 204 206 209 212 214 214 215 215 217 219 220 221 220 218 217 217 217 218 219 221 219 213 208 207 207 205 205 206 207 209 212 214 215 216 222 234 251 272 328 358 6 10 8 5 3 -0 359 6 14 17 11 2 1 4 5 4 1 358 358 357 354
196 199 201 201 201 202 203 203 204 205 209 212 210 203 201 206 214 225 230 218 205 205 205 203 204 206 208 211 213 211 211 213 216 219 220 219 217 215 215 217 218 219 221 222 219 214 210 210 209 207 207 208 209 211 216 218 220 225 235 248 261 273 293 331 356 4 2 357 358 359 359 4 11 14 12 1 358 1 1 2 2 356 354 354 351
196 198 199 201 202 203 203 205 205 207 210 210 204 199 202 207 216 227 228 215 206 204 204 203 203 204 207 212 211 209 212 215 216 217 218 216 215 215 215 216 218 219 222 225 223 217 214 213 211 210 212 212 213 216 219 222 224 226 234 249 264 281 303 329 349 355 352 349 351 355 0 9 9 10 11 3 359 359 358 359 1 357 354 353 349
196 199 200 201 201 201 203 206 207 209 210 206 199 199 203 207 215 225 225 214 207 204 203 203 202 203 209 212 211 211 215 215 212 213 216 216 216 216 215 215 218 219 222 226 225 220 216 213 210 212 215 216 218 220 220 222 226 226 232 245 263 289 313 332 345 344 339 339 345 351 3 15 9 6 7 2 359 358 357 358 359 357 355 353 351
196 198 199 199 199 201 205 206 208 211 209 201 197 200 205 209 216 223 222 214 207 204 203 203 202 205 210 214 213 213 215 215 214 216 218 219 220 219 218 217 218 218 220 225 227 225 221 215 212 214 218 219 221 222 220 221 226 231 239 255 274 289 301 322 336 332 327 332 339 346 2 12 6 3 4 359 356 355 355 356 357 358 358 356 355
197 197 197 198 201 204 207 207 210 211 205 197 196 201 206 211 215 219 219 214 207 204 204 204 204 208 212 215 215 215 216 219 222 223 223 224 224 222 221 218 216 217 220 225 228 228 225 222 220 219 222 222 220 221 223 224 227 236 247 258 269 277 296 321 331 326 323 328 332 335 353 5 1 0 358 354 353 351 350 352 355 358 359 356 354
196 197 197 199 202 205 207 210 213 210 200 194 197 202 208 212 214 216 220 217 209 205 204 204 206 212 216 217 217 219 223 225 227 226 226 226 224 220 218 216 214 217 221 224 228 229 228 227 228 230 230 227 221 219 223 227 231 239 248 252 256 269 295 321 326 320 318 317 313 311 337 1 359 355 351 351 352 347 345 350 358 360 357 352 351
195 197 198 199 201 203 206 210 210 205 198 195 199 205 210 212 210 211 217 218 211 207 205 205 208 213 218 220 221 225 228 228 229 229 227 225 219 216 216 216 216 219 222 225 229 231 230 229 231 236 239 237 230 226 228 232 235 241 247 251 257 269 291 308 311 310 311 307 299 297 334 2 2 354 346 345 346 344 344 351 -0 359 353 351 353
198 197 198 200 202 204 205 204 202 202 200 198 201 208 212 211 207 208 213 216 213 209 207 207 210 213 217 220 224 228 229 228 230 231 229 223 216 213 215 218 220 223 225 228 229 230 230 229 229 233 238 240 238 235 233 234 236 241 248 253 260 271 283 294 301 306 310 307 302 309 349 2 6 355 341 339 347 354 355 358 358 356 352 353 356
204 199 198 200 201 203 202 199 200 205 204 201 202 208 211 209 208 209 213 216 215 211 208 209 212 215 218 220 224 228 229 229 231 233 230 223 215 213 217 221 223 225 227 230 231 230 230 231 231 233 235 237 236 234 234 235 235 238 245 252 258 266 274 286 297 302 305 303 305 344 3 357 2 352 336 337 353 2 358 356 355 356 355 355 356
207 203 202 203 202 202 201 200 202 207 207 204 204 205 207 207 209 213 217 219 217 212 210 211 214 216 217 220 224 229 229 230 234 236 232 224 217 215 218 222 223 224 226 230 231 230 230 233 236 237 238 238 237 235 234 236 236 237 244 250 255 261 270 283 294 297 296 295 303 348 356 348 353 344 331 332 345 352 348 349 357 0 359 357 357
205 205 207 209 207 205 203 202 204 207 209 209 206 204 205 207 211 216 221 222 219 214 213 214 215 215 217 221 225 229 231 233 236 237 232 227 222 218 219 222 224 225 226 228 228 228 231 236 238 239 238 237 237 237 236 237 237 238 243 248 251 259 269 280 291 293 288 287 308 331 329 334 344 334 322 325 336 341 340 345 358 2 356 357 2
202 203 205 207 206 204 202 201 202 206 210 210 207 206 207 209 212 216 220 222 220 217 216 215 215 216 219 223 227 229 231 234 238 238 232 229 227 223 220 221 223 225 227 226 223 222 228 237 241 241 238 237 238 239 239 239 237 238 242 246 249 255 267 277 285 285 280 285 323 339 325 323 335 321 314 321 332 336 336 343 357 358 353 356 3
200 199 200 202 201 199 198 199 201 206 210 210 207 207 209 211 213 215 218 220 221 220 218 217 218 220 223 226 229 231 234 235 237 237 233 229 228 226 223 221 222 224 226 227 224 221 223 232 238 238 237 240 243 244 241 239 238 238 241 245 247 253 265 271 271 275 279 288 325 346 352 339 318 307 311 320 329 329 329 336 349 352 353 356 359
197 195 194 195 196 197 199 201 205 209 210 209 209 210 212 213 215 216 218 221 224 224 223 221 222 223 226 228 229 232 236 236 235 234 232 229 228 226 224 222 220 220 223 226 226 224 224 228 232 234 235 238 243 247 246 242 240 239 240 244 247 251 260 261 259 267 279 284 295 312 336 328 301 297 306 315 322 326 324 327 340 348 352 355 353
194 192 192 192 195 201 205 208 210 209 208 208 210 211 213 215 217 218 221 223 225 226 226 225 225 226 227 228 229 231 234 234 232 231 231 229 227 225 224 222 219 217 220 223 225 224 225 228 230 232 235 239 243 248 249 246 242 240 240 244 247 249 254 254 251 256 269 277 284 288 290 291 284 285 297 307 315 320 317 319 334 342 343 346 346
193 192 193 194 199 205 210 212 210 207 207 209 212 213 215 217 220 224 227 229 229 230 231 230 230 230 230 229 228 227 230 233 233 233 233 233 231 227 224 222 220 219 220 222 223 224 225 228 231 233 236 239 243 248 251 250 247 245 244 245 245 243 243 243 243 250 265 275 284 287 281 276 271 274 289 303 311 310 306 314 335 340 336 339 341
196 195 195 198 203 207 210 211 210 209 210 212 215 218 221 223 226 228 231 234 238 243 244 240 237 236 236 235 233 231 235 241 245 245 243 241 238 234 232 231 229 227 225 223 224 226 227 229 233 236 239 243 246 249 252 251 249 249 247 245 242 235 233 240 246 252 260 268 281 289 284 275 269 273 289 303 309 307 305 318 334 333 330 336 339
197 198 199 202 205 208 208 208 210 212 213 214 214 217 220 224 228 230 233 237 241 243 245 246 246 243 243 244 245 246 250 256 257 254 249 247 244 242 242 241 239 236 230 225 225 228 231 233 237 240 244 247 249 251 253 252 251 250 248 245 240 232 231 241 250 252 255 264 275 282 283 285 284 283 291 301 306 306 309 322 328 323 323 330 334
197 197 200 202 206 208 208 208 210 213 215 216 216 216 216 217 220 226 233 238 240 240 240 241 244 245 244 247 250 251 252 253 253 253 252 252 250 249 248 245 242 238 233 228 227 230 234 237 241 244 247 249 252 253 254 254 253 251 249 246 241 235 235 241 248 254 260 266 268 269 275 282 284 284 292 301 305 305 305 310 314 314 315 321 324
203 203 205 206 207 208 210 214 217 216 215 215 217 218 217 215 215 221 226 229 232 236 236 235 238 241 241 242 243 243 243 246 248 250 251 251 252 253 251 247 242 238 234 231 231 233 237 240 244 247 249 251 252 253 253 252 251 250 250 248 245 241 242 246 253 262 265 267 267 269 272 278 284 289 295 300 302 302 298 296 303 308 308 310 313
206 208 209 208 208 211 221 232 233 225 218 216 216 220 221 219 218 220 221 222 225 228 230 232 235 236 236 237 237 237 240 244 248 250 251 251 251 251 250 248 242 236 232 231 232 234 238 241 244 247 249 249 250 252 251 249 247 246 247 249 249 249 250 254 259 262 262 263 268 271 273 281 291 295 292 290 293 293 286 287 298 304 300 300 307
206 210 212 211 211 217 228 238 238 228 221 218 217 220 222 222 221 220 220 222 222 219 218 220 225 229 233 237 238 235 235 239 244 247 249 250 249 250 249 246 239 233 230 231 233 234 236 239 242 244 245 245 247 249 249 247 246 246 248 253 258 259 258 257 258 258 258 263 270 273 277 283 287 286 285 287 289 284 279 287 297 299 294 298 307
208 214 216 215 217 223 230 235 234 227 220 215 214 218 223 224 222 220 222 229 229 222 216 215 219 225 231 235 236 234 232 235 241 244 245 244 243 243 243 239 234 230 229 229 231 232 233 236 239 242 244 244 245 245 246 246 247 248 251 256 261 262 259 258 260 263 265 268 273 276 279 280 278 278 283 286 284 281 283 289 294 292 292 301 307
212 217 219 221 225 233 238 236 233 227 219 213 212 217 223 225 223 221 222 229 231 225 219 218 220 224 227 229 232 233 233 236 241 242 242 240 239 239 240 239 237 235 233 233 234 234 234 236 238 240 242 243 243 244 245 246 248 249 251 254 255 256 258 262 266 267 266 268 272 273 275 275 275 277 281 283 284 286 288 289 288 288 294 303 308
217 223 226 225 228 236 238 234 230 225 218 212 212 215 219 222 223 222 222 225 226 223 222 223 224 224 225 224 226 229 232 236 241 241 239 239 239 240 242 243 242 240 239 239 239 239 239 240 241 242 242 242 243 243 243 245 248 249 250 250 250 253 259 264 266 264 262 266 271 270 270 273 276 279 283 286 291 294 294 293 291 291 295 302 307
224 231 230 225 226 234 236 229 223 220 216 214 215 217 219 220 222 223 224 227 227 226 227 229 230 230 230 227 226 227 230 233 236 237 237 237 238 241 243 244 244 243 242 243 243 243 244 245 245 246 246 244 243 243 242 244 246 248 249 247 246 251 258 262 262 260 260 264 268 268 270 274 279 284 289 293 296 297 296 296 295 294 296 302 305
223 226 226 224 227 232 230 224 220 218 215 214 216 219 222 223 224 226 229 232 231 229 229 231 233 234 233 232 230 230 232 234 237 239 240 241 243 245 247 247 247 246 245 245 244 244 246 247 247 248 248 246 244 243 243 244 246 248 249 246 244 247 253 256 256 258 262 264 266 269 271 274 278 285 291 292 290 290 292 294 296 297 299 300 301
214 218 220 222 224 224 225 226 227 225 220 217 216 218 222 224 227 232 235 236 235 232 231 233 235 235 234 234 234 235 237 241 243 246 247 248 249 250 251 251 252 252 251 250 249 248 248 248 248 247 246 245 244 244 244 247 250 251 250 247 245 247 252 252 251 256 262 265 267 270 273 277 281 286 290 291 290 291 292 293 295 295 295 296 300
222 224 223 223 223 224 226 230 232 233 231 225 219 219 222 226 231 235 238 239 239 236 234 235 236 235 234 235 236 235 239 245 248 249 251 254 255 255 256 256 257 257 257 257 256 255 254 253 250 248 246 245 245 245 246 247 248 248 247 245 244 244 245 246 248 253 260 265 269 274 277 279 281 284 288 290 291 293 294 295 297 297 297 299 303
247 240 232 231 231 229 231 235 238 239 236 230 226 225 226 229 232 235 238 240 240 238 236 236 236 235 235 237 235 229 229 239 244 246 250 254 257 258 259 259 259 260 261 262 262 261 260 259 256 251 247 243 239 238 238 239 241 242 241 242 243 241 238 241 249 256 261 266 271 275 277 278 279 282 286 288 288 289 289 289 291 294 297 299 303
254 250 246 246 243 240 241 244 243 239 235 231 230 231 231 231 233 236 239 242 241 239 237 238 238 238 237 238 233 224 222 232 243 247 251 255 257 259 263 266 265 263 263 264 264 264 263 262 259 255 247 238 230 228 235 244 249 248 242 240 245 247 245 246 250 253 256 261 268 272 275 277 281 286 289 289 286 284 283 284 286 290 294 298 301
247 246 245 245 243 242 247 248 245 242 240 237 234 233 234 236 236 236 238 239 238 238 240 239 237 236 235 232 227 223 225 234 242 248 253 258 261 265 272 276 275 270 266 263 262 261 261 261 259 256 248 239 230 229 235 244 252 250 240 234 239 248 249 246 246 249 253 259 266 271 274 279 284 288 290 291 290 286 283 284 286 288 292 296 299
243 240 237 235 233 232 237 244 247 246 245 242 238 236 237 238 238 238 238 237 236 238 240 237 231 230 232 231 228 228 233 238 241 246 251 256 261 268 274 276 277 277 275 270 263 259 259 259 258 255 251 243 234 229 231 239 250 252 240 235 244 254 254 249 247 251 258 262 265 269 274 278 282 284 285 288 291 288 284 285 287 288 294 301 304
243 242 243 242 239 234 231 235 240 239 238 240 241 239 238 238 239 241 242 240 237 237 237 233 228 227 230 232 233 237 240 242 244 248 252 254 259 267 273 276 278 279 280 277 269 261 257 256 255 254 252 247 239 233 231 235 244 248 242 243 251 256 253 248 250 254 257 259 261 266 271 275 277 279 280 282 285 286 284 283 283 288 297 304 307
243 246 247 244 240 232 225 226 236 242 243 244 245 242 240 240 241 243 244 244 240 234 230 228 227 227 228 231 236 243 247 249 251 253 253 254 260 266 272 276 279 280 280 278 271 264 260 257 254 252 250 247 243 239 234 233 237 241 243 248 253 253 246 243 247 250 252 256 259 263 270 276 278 279 279 278 277 277 275 275 280 290 297 301 304
260 259 252 241 232 225 221 227 243 250 250 248 246 246 248 248 244 243 244 244 240 235 230 227 227 227 228 230 235 240 246 250 251 251 252 256 263 269 272 273 276 278 278 274 266 261 262 262 259 255 250 246 243 242 239 236 237 239 242 247 252 250 244 242 245 250 254 257 258 263 273 282 285 283 279 274 268 267 271 280 289 295 296 297 300
268 261 247 233 225 220 221 234 245 247 249 249 246 245 248 248 244 243 242 241 239 238 236 234 233 233 234 233 232 235 241 246 246 248 253 258 263 268 271 270 270 271 272 270 265 262 262 263 263 262 256 247 243 241 240 237 237 239 242 246 247 245 242 243 246 250 254 256 257 263 273 281 284 285 284 280 276 278 285 291 293 292 291 293 298
254 241 227 220 221 223 228 242 249 248 248 248 246 246 248 248 246 246 245 242 240 241 240 239 238 239 239 235 232 235 241 246 248 251 255 258 259 261 264 263 262 263 265 266 267 266 263 260 259 259 256 248 240 236 234 233 234 237 240 241 239 238 241 245 247 250 255 259 262 265 269 273 278 282 284 282 283 286 288 288 287 288 289 293 295
236 228 220 223 234 242 248 254 255 249 244 244 248 253 258 258 255 252 250 248 246 245 243 243 244 246 246 242 239 240 244 249 253 257 259 258 256 256 257 258 260 262 263 264 264 263 260 256 253 251 247 240 234 231 231 232 234 237 239 239 239 241 246 250 253 257 261 262 262 263 265 267 271 275 277 279 281 284 284 283 284 286 289 291 291
Height
1494 1496 1498 1500 1503 1505 1507 1509 1511 1513 1515 1518 1519 1520 1522 1523 1524 1525 1526 1527 1527 1528 1528 1529 1530 1530 1531 1532 1533 1535 1536 1538 1539 1541 1542 1543 1544 1545 1546 1547 1548 1548 1549 1550 1550 1552 1552 1553 1554 1555 1555 1556 1557 1557 1558 1558 1558 1559 1559 1559 1559 1559 1560 1560 1560 1560 1560 1559 1558 1558 1556 1555 1554 1553 1551 1548 1547 1545 1543 1540 1537 1535 1532 1529 1528
1491 1494 1496 1498 1501 1503 1506 1508 1510 1512 1514 1515 1517 1519 1520 1521 1523 1523 1524 1525 1526 1526 1526 1527 1528 1528 1529 1530 1532 1533 1535 1537 1538 1540 1541 1542 1543 1544 1545 1546 1547 1547 1548 1549 1550 1551 1552 1553 1554 1554 1555 1556 1556 1557 1557 1558 1558 1558 1558 1558 1558 1558 1559 1559 1560 1560 1559 1558 1558 1557 1556 1555 1553 1551 1550 1548 1546 1543 1541 1538 1536 1533 1531 1529 1527
1490 1492 1494 1497 1499 1501 1504 1506 1508 1510 1512 1513 1515 1517 1518 1520 1521 1522 1523 1523 1524 1524 1525 1525 1526 1526 1528 1529 1531 1532 1534 1535 1537 1539 1540 1541 1542 1543 1544 1545 1546 1547 1547 1548 1550 1551 1552 1552 1553 1554 1555 1556 1556 1557 1558 1558 1558 1558 1558 1558 1558 1558 1558 1558 1558 1558 1558 1557 1557 1556 1555 1554 1552 1550 1549 1547 1545 1542 1539 1537 1535 1533 1531 1529 1527
1488 1491 1493 1495 1497 1500 1502 1504 1506 1508 1510 1511 1513 1515 1516 1518 1519 1520 1521 1522 1522 1523 1523 1524 1524 1525 1526 1528 1529 1531 1533 1534 1536 1538 1539 1540 1541 1542 1543 1544 1545 1546 1547 1548 1549 1550 1551 1552 1553 1553 1554 1555 1556 1557 1557 1558 1558 1558 1558 1558 1558 1558 1558 1557 1557 1556 1556 1556 1556 1555 1554 1553 1551 1550 1548 1546 1544 1541 1539 1536 1534 1532 1530 1528 1527
1486 1489 1491 1493 1495 1498 1500 1502 1504 1506 1508 1510 1511 1513 1515 1516 1518 1519 1520 1520 1521 1521 1522 1522 1523 1524 1525 1527 1529 1530 1532 1533 1535 1537 1538 1539 1540 1541 1543 1543 1544 1545 1546 1547 1548 1550 1550 1551 1552 1553 1554 1555 1556 1556 1557 1557 1558 1558 1558 1558 1558 1558 1557 1557 1556 1555 1555 1555 1555 1554 1553 1552 1550 1549 1547 1545 1542 1540 1538 1536 1534 1531 1529 1527 1525
1484 1487 1489 1491 1493 1496 1498 1500 1502 1504 1506 1508 1509 1511 1513 1515 1516 1517 1518 1519 1519 1520 1520 1521 1522 1523 1525 1526 1528 1529 1531 1532 1534 1536 1537 1538 1539 1541 1542 1542 1543 1545 1546 1547 1548 1549 1550 1551 1552 1552 1553 1554 1555 1556 1556 1557 1557 1557 1558 1558 1558 1558 1557 1557 1556 1555 1554 1554 1554 1553 1552 1551 1549 1548 1546 1544 1542 1539 1537 1535 1533 1531 1529 1526 1523
1482 1484 1486 1489 1491 1494 1496 1498 1500 1502 1504 1506 1508 1509 1511 1513 1514 1515 1517 1518 1518 1518 1519 1520 1521 1522 1524 1525 1527 1529 1530 1531 1533 1534 1536 1537 1538 1540 1541 1542 1543 1544 1545 1546 1547 1548 1549 1550 1551 1552 1553 1554 1555 1555 1556 1556 1557 1557 1557 1557 1557 1557 1557 1556 1555 1554 1554 1554 1553 1552 1551 1550 1548 1547 1546 1544 1542 1539 1537 1534 1532 1530 1528 1526 1523
1479 1482 1484 1487 1489 1492 1494 1496 1498 1501 1503 1504 1506 1508 1510 1512 1513 1514 1515 1516 1517 1517 1518 1519 1520 1521 1523 1524 1526 1527 1529 1530 1532 1533 1534 1536 1537 1538 1540 1541 1542 1543 1545 1545 1546 1547 1549 1550 1551 1552 1553 1554 1554 1555 1555 1556 1556 1557 1557 1557 1557 1557 1557 1556 1555 1554 1553 1553 1552 1551 1550 1549 1547 1546 1545 1543 1541 1539 1536 1535 1532 1530 1528 1526 1524
1476 1479 1482 1484 1487 1490 1492 1495 1497 1499 1501 1503 1504 1507 1509 1510 1511 1513 1514 1515 1515 1516 1517 1518 1519 1521 1522 1523 1525 1526 1528 1529 1531 1532 1534 1535 1536 1538 1539 1540 1541 1543 1544 1544 1546 1547 1548 1549 1550 1551 1552 1553 1553 1554 1554 1555 1555 1556 1556 1556 1556 1556 1556 1555 1554 1553 1552 1552 1551 1550 1549 1548 1547 1545 1544 1542 1540 1538 1536 1535 1534 1531 1528 1526 1524
1473 1477 1480 1482 1485 1488 1490 1493 1495 1497 1499 1501 1503 1505 1507 1509 1510 1511 1513 1514 1514 1515 1516 1517 1519 1520 1521 1522 1524 1525 1527 1528 1530 1532 1533 1534 1536 1537 1538 1539 1540 1542 1543 1543 1545 1546 1547 1548 1549 1550 1551 1552 1552 1553 1554 1554 1554 1555 1555 1555 1555 1555 1555 1554 1553 1552 1552 1551 1550 1549 1548 1547 1546 1545 1543 1541 1540 1538 1536 1535 1533 1531 1528 1526 1523
1471 1475 1478 1480 1483 1485 1488 1490 1493 1495 1497 1499 1501 1503 1505 1507 1508 1510 1512 1512 1513 1514 1515 1517 1518 1519 1520 1521 1523 1525 1526 1528 1530 1531 1533 1534 1535 1536 1537 1538 1539 1541 1542 1542 1544 1545 1546 1547 1548 1549 1550 1550 1551 1552 1553 1553 1553 1554 1554 1554 1554 1554 1554 1553 1552 1551 1551 1550 1549 1548 1547 1546 1545 1544 1543 1541 1539 1537 1536 1534 1532 1530 1528 1525 1522
1469 1473 1476 1478 1481 1483 1485 1488 1490 1492 1494 1497 1500 1501 1504 1505 1507 1509 1510 1511 1511 1513 1514 1516 1517 1519 1520 1521 1523 1524 1526 1528 1530 1532 1533 1534 1535 1536 1537 1538 1539 1540 1541 1541 1543 1544 1544 1545 1546 1547 1549 1549 1550 1551 1551 1552 1552 1553 1553 1553 1553 1553 1552 1552 1551 1551 1550 1549 1549 1548 1546 1546 1545 1543 1542 1540 1538 1537 1535 1534 1532 1530 1528 1526 1523
1467 1470 1473 1476 1478 1480 1483 1485 1488 1490 1492 1495 1498 1499 1501 1503 1505 1507 1508 1509 1510 1512 1513 1515 1516 1518 1519 1521 1522 1524 1526 1528 1529 1531 1532 1533 1534 1535 1536 1538 1539 1540 1540 1541 1542 1543 1543 1544 1545 1546 1547 1548 1549 1549 1550 1551 1551 1552 1552 1552 1552 1552 1551 1551 1550 1550 1549 1548 1548 1547 1546 1545 1544 1542 1541 1539 1538 1536 1535 1533 1532 1530 1528 1526 1523
1465 1468 1470 1473 1476 1478 1481 1483 1485 1488 1491 1493 1495 1497 1499 1502 1504 1506 1507 1508 1509 1510 1512 1514 1516 1517 1518 1519 1521 1523 1524 1526 1527 1529 1531 1532 1534 1535 1536 1537 1538 1539 1539 1540 1541 1541 1542 1543 1544 1545 1546 1546 1547 1548 1549 1550 1550 1551 1551 1551 1550 1550 1550 1549 1549 1548 1548 1547 1546 1546 1545 1544 1543 1542 1540 1539 1538 1536 1534 1532 1531 1529 1528 1525 1523
1462 1465 1468 1471 1473 1476 1478 1481 1483 1486 1489 1491 1493 1495 1498 1500 1502 1504 1505 1506 1508 1509 1511 1513 1515 1516 1517 1518 1520 1521 1522 1524 1525 1527 1529 1531 1533 1535 1535 1536 1536 1537 1538 1538 1539 1540 1541 1542 1543 1543 1544 1545 1546 1547 1548 1549 1549 1549 1549 1549 1549 1549 1548 1548 1547 1547 1546 1546 1545 1545 1544 1543 1542 1541 1540 1539 1538 1536 1534 1532 1531 1529 1527 1525 1522
1460 1463 1466 1468 1470 1473 1476 1478 1481 1484 1486 1488 1491 1493 1495 1497 1500 1502 1504 1505 1507 1509 1510 1512 1513 1514 1515 1516 1518 1520 1521 1523 1524 1526 1527 1529 1531 1533 1534 1535 1535 1536 1536 1537 1537 1538 1539 1540 1541 1542 1543 1543 1545 1546 1547 1547 1548 1548 1548 1548 1548 1547 1547 1546 1546 1546 1545 1544 1544 1543 1542 1542 1541 1540 1539 1538 1537 1536 1534 1532 1531 1529 1527 1524 1521
1457 1460 1463 1465 1468 1470 1474 1476 1479 1481 1484 1486 1489 1491 1493 1495 1498 1500 1502 1503 1505 1507 1509 1511 1512 1513 1513 1514 1516 1518 1519 1521 1523 1524 1525 1526 1527 1529 1532 1533 1534 1534 1535 1535 1536 1536 1538 1539 1540 1540 1541 1542 1543 1544 1545 1546 1546 1546 1546 1546 1546 1546 1545 1545 1545 1544 1544 1543 1542 1542 1542 1541 1541 1540 1539 1538 1536 1535 1533 1532 1530 1528 1526 1523 1520
1455 1457 1460 1463 1465 1468 1471 1473 1476 1478 1481 1484 1487 1490 1492 1493 1495 1497 1499 1501 1503 1505 1507 1509 1510 1511 1511 1512 1514 1516 1518 1520 1522 1522 1523 1524 1526 1527 1529 1531 1532 1532 1533 1533 1534 1535 1536 1537 1538 1538 1539 1541 1542 1543 1543 1544 1544 1545 1545 1545 1545 1545 1544 1544 1544 1543 1543 1542 1542 1541 1541 1540 1540 1539 1538 1537 1535 1534 1532 1531 1530 1527 1526 1523 1520
1452 1455 1458 1461 1463 1466 1469 1471 1474 1478 1481 1484 1486 1488 1490 1491 1492 1495 1497 1499 1501 1503 1505 1507 1508 1509 1509 1511 1512 1513 1515 1518 1520 1520 1521 1523 1524 1525 1527 1528 1529 1530 1531 1532 1532 1533 1535 1536 1536 1537 1538 1539 1540 1541 1542 1543 1543 1543 1544 1544 1544 1544 1544 1543 1543 1542 1542 1541 1541 1540 1540 1539 1538 1537 1537 1536 1535 1533 1532 1531 1529 1527 1525 1523 1520
1451 1454 1457 1459 1463 1466 1468 1470 1473 1476 1479 1482 1485 1487 1488 1489 1491 1494 1496 1497 1499 1501 1503 1505 1506 1507 1508 1509 1510 1511 1513 1516 1518 1519 1520 1521 1522 1523 1525 1526 1527 1528 1529 1530 1531 1532 1533 1534 1534 1535 1536 1537 1539 1540 1540 1541 1541 1542 1542 1542 1542 1542 1543 1542 1542 1541 1541 1540 1539 1539 1538 1538 1537 1536 1536 1535 1534 1533 1532 1530 1529 1527 1526 1523 1520
1450 1454 1456 1458 1461 1464 1466 1469 1473 1476 1478 1481 1484 1485 1486 1487 1490 1493 1494 1495 1497 1499 1501 1503 1504 1505 1506 1507 1508 1510 1512 1514 1516 1517 1519 1520 1521 1522 1523 1524 1525 1526 1527 1528 1529 1530 1531 1532 1533 1534 1535 1536 1537 1538 1538 1539 1539 1540 1541 1541 1541 1541 1541 1541 1541 1540 1540 1539 1538 1538 1537 1536 1536 1535 1535 1534 1533 1532 1531 1530 1528 1527 1526 1523 1521
1448 1452 1454 1457 1460 1462 1464 1468 1472 1474 1476 1479 1482 1484 1484 1486 1489 1492 1493 1494 1495 1497 1499 1501 1502 1503 1504 1506 1508 1510 1511 1513 1515 1516 1517 1518 1519 1520 1521 1522 1523 1524 1525 1526 1527 1528 1529 1530 1531 1532 1533 1534 1535 1535 1536 1537 1538 1538 1539 1539 1539 1539 1539 1539 1539 1539 1538 1538 1537 1536 1536 1535 1534 1534 1534 1533 1532 1531 1530 1529 1528 1526 1525 1524 1521
1445 1449 1452 1454 1457 1459 1462 1465 1469 1471 1474 1477 1480 1482 1483 1485 1488 1490 1491 1492 1494 1495 1497 1498 1499 1500 1502 1504 1506 1507 1509 1510 1512 1514 1515 1516 1517 1518 1520 1520 1521 1522 1523 1524 1525 1526 1527 1528 1529 1531 1531 1532 1533 1533 1534 1535 1536 1537 1537 1538 1537 1537 1537 1538 1538 1537 1537 1537 1536 1535 1535 1534 1533 1533 1533 1532 1531 1530 1529 1528 1527 1526 1524 1523 1521
1444 1447 1450 1452 1454 1457 1460 1463 1467 1469 1472 1475 1477 1479 1481 1483 1485 1487 1489 1490 1492 1493 1494 1495 1497 1499 1500 1501 1503 1504 1505 1507 1509 1511 1512 1514 1515 1516 1517 1519 1520 1521 1522 1523 1523 1524 1525 1526 1527 1529 1530 1530 1531 1532 1532 1533 1534 1535 1536 1536 1536 1535 1535 1536 1536 1536 1535 1535 1535 1534 1533 1532 1532 1532 1532 1531 1530 1529 1528 1527 1526 1525 1523 1522 1521
1442 1445 1447 1449 1452 1455 1459 1462 1465 1467 1469 1472 1474 1476 1478 1480 1483 1485 1487 1488 1489 1490 1491 1493 1495 1497 1498 1498 1499 1501 1502 1504 1506 1508 1509 1511 1513 1514 1515 1516 1518 1519 1520 1521 1522 1523 1524 1525 1526 1527 1528 1529 1529 1530 1530 1531 1532 1533 1534 1534 1534 1533 1534 1534 1534 1534 1534 1534 1533 1533 1532 1531 1531 1531 1531 1530 1529 1528 1527 1526 1525 1523 1522 1521 1519
1440 1442 1444 1448 1451 1454 1457 1459 1462 1464 1467 1469 1471 1473 1475 1477 1480 1482 1484 1485 1486 1487 1488 1490 1492 1494 1494 1495 1497 1498 1499 1501 1503 1505 1506 1508 1509 1511 1512 1514 1516 1517 1518 1519 1520 1521 1522 1523 1524 1525 1526 1527 1527 1528 1528 1529 1530 1531 1531 1532 1532 1532 1532 1532 1532 1532 1532 1532 1532 1531 1531 1530 1531 1531 1530 1529 1528 1527 1526 1525 1524 1522 1521 1519 1518
1437 1440 1443 1447 1450 1453 1454 1456 1459 1461 1464 1466 1469 1471 1473 1475 1477 1479 1480 1482 1482 1484 1485 1487 1488 1490 1491 1492 1494 1495 1496 1498 1500 1502 1503 1504 1506 1508 1509 1511 1513 1514 1515 1516 1517 1519 1520 1522 1523 1524 1524 1525 1525 1525 1526 1527 1528 1528 1529 1530 1530 1530 1530 1530 1531 1531 1530 1530 1530 1530 1529 1529 1529 1529 1528 1528 1527 1526 1525 1525 1523 1521 1520 1519 1517
1436 1439 1442 1446 1448 1450 1452 1454 1456 1458 1460 1463 1465 1468 1470 1472 1474 1476 1477 1478 1479 1481 1482 1483 1484 1486 1487 1489 1491 1492 1493 1494 1496 1498 1500 1502 1503 1505 1506 1508 1510 1511 1512 1514 1516 1517 1518 1519 1520 1521 1522 1522 1523 1523 1524 1525 1526 1526 1527 1527 1528 1528 1528 1528 1528 1528 1529 1529 1528 1528 1527 1527 1527 1527 1527 1526 1526 1525 1524 1523 1522 1521 1519 1518 1517
1436 1439 1442 1444 1447 1449 1451 1453 1454 1456 1458 1460 1463 1465 1467 1470 1472 1473 1475 1476 1478 1479 1480 1481 1483 1484 1485 1487 1488 1489 1490 1490 1492 1495 1497 1499 1501 1503 1504 1505 1507 1508 1510 1512 1514 1515 1516 1517 1518 1519 1519 1520 1520 1521 1522 1523 1523 1524 1525 1525 1526 1526 1526 1526 1526 1526 1527 1527 1526 1526 1526 1525 1525 1525 1525 1524 1524 1523 1523 1522 1521 1520 1519 1518 1516
1436 1439 1440 1442 1445 1447 1449 1451 1453 1454 1456 1459 1461 1464 1466 1468 1470 1472 1473 1475 1476 1478 1479 1480 1482 1483 1484 1485 1486 1487 1488 1489 1491 1494 1496 1497 1499 1501 1502 1504 1505 1507 1508 1510 1511 1512 1513 1514 1515 1516 1516 1517 1518 1518 1519 1520 1521 1522 1522 1523 1524 1524 1524 1524 1524 1524 1525 1525 1524 1524 1524 1523 1523 1523 1523 1523 1522 1522 1521 1520 1520 1519 1518 1516 1515
1435 1437 1439 1441 1443 1445 1448 1450 1451 1453 1455 1457 1459 1462 1464 1466 1469 1470 1472 1473 1475 1476 1478 1479 1480 1481 1482 1483 1484 1485 1487 1488 1490 1492 1493 1495 1497 1498 1500 1501 1503 1504 1506 1508 1508 1509 1509 1511 1512 1513 1514 1514 1515 1516 1517 1518 1519 1519 1520 1520 1521 1521 1521 1521 1522 1522 1522 1522 1522 1522 1522 1522 1522 1522 1521 1521 1520 1520 1519 1519 1518 1518 1517 1515 1514
1435 1437 1439 1441 1444 1446 1448 1449 1450 1452 1453 1455 1458 1460 1462 1464 1466 1468 1469 1471 1473 1474 1475 1476 1478 1479 1480 1481 1483 1484 1485 1486 1487 1489 1491 1493 1495 1496 1497 1498 1500 1501 1503 1504 1505 1505 1506 1508 1509 1510 1511 1511 1512 1513 1514 1515 1516 1516 1517 1518 1518 1519 1519 1519 1519 1520 1520 1520 1520 1520 1520 1520 1520 1519 1519 1519 1518 1518 1517 1517 1516 1516 1515 1514 1513
1434 1437 1439 1442 1444 1446 1447 1447 1448 1449 1451 1453 1456 1458 1460 1462 1463 1464 1466 1468 1470 1472 1473 1474 1475 1476 1478 1479 1480 1482 1483 1485 1486 1488 1489 1491 1492 1493 1494 1495 1497 1498 1499 1500 1501 1502 1503 1505 1506 1507 1508 1508 1509 1510 1511 1512 1513 1514 1514 1515 1515 1516 1516 1517 1517 1518 1518 1518 1518 1518 1518 1518 1518 1517 1517 1517 1516 1516 1515 1515 1515 1514 1513 1512 1511
1433 1435 1438 1440 1442 1442 1443 1443 1444 1445 1448 1450 1453 1455 1457 1458 1459 1461 1463 1464 1466 1468 1469 1471 1472 1474 1476 1477 1478 1480 1482 1483 1485 1486 1487 1489 1490 1491 1492 1493 1494 1494 1495 1496 1497 1499 1500 1501 1502 1503 1504 1505 1506 1507 1508 1509 1510 1510 1511 1512 1513 1513 1514 1515 1515 1515 1516 1516 1516 1516 1516 1516 1515 1515 1515 1515 1514 1514 1513 1513 1513 1512 1512 1511 1509
1432 1435 1437 1438 1438 1438 1438 1438 1438 1439 1441 1445 1448 1450 1452 1454 1457 1459 1461 1461 1462 1463 1465 1467 1470 1472 1473 1475 1476 1478 1480 1481 1483 1484 1485 1486 1487 1488 1489 1489 1490 1490 1491 1492 1493 1495 1496 1497 1498 1500 1501 1502 1503 1504 1505 1506 1507 1507 1508 1509 1510 1511 1512 1512 1512 1513 1513 1513 1513 1513 1513 1513 1513 1513 1513 1512 1512 1512 1511 1511 1511 1510 1510 1509 1508
1432 1434 1435 1436 1437 1437 1436 1435 1435 1436 1438 1440 1442 1445 1448 1451 1454 1456 1457 1458 1459 1461 1463 1465 1467 1469 1471 1473 1474 1476 1478 1479 1480 1481 1482 1483 1484 1485 1485 1485 1486 1487 1488 1489 1490 1491 1493 1494 1495 1496 1497 1498 1499 1501 1502 1503 1504 1505 1506 1507 1508 1508 1509 1509 1510 1510 1511 1511 1511 1511 1511 1511 1511 1511 1511 1510 1510 1510 1509 1509 1509 1508 1508 1507 1506
1430 1432 1433 1434 1435 1434 1434 1434 1435 1436 1438 1440 1441 1443 1445 1448 1451 1453 1454 1455 1457 1459 1462 1464 1465 1467 1468 1470 1472 1474 1475 1477 1478 1479 1480 1481 1481 1481 1482 1482 1483 1484 1485 1486 1487 1489 1490 1491 1492 1493 1494 1495 1497 1498 1499 1500 1501 1502 1503 1504 1505 1506 1506 1507 1508 1508 1508 1508 1509 1509 1509 1509 1509 1509 1509 1508 1508 1508 1507 1507 1507 1506 1506 1505 1504
1429 1430 1431 1432 1433 1433 1433 1433 1434 1436 1438 1440 1442 1443 1444 1446 1448 1450 1452 1453 1455 1458 1460 1461 1462 1464 1465 1467 1469 1471 1473 1474 1475 1475 1476 1477 1477 1477 1478 1479 1480 1481 1482 1483 1484 1485 1487 1488 1489 1490 1491 1493 1494 1495 1496 1497 1498 1499 1500 1501 1502 1503 1504 1505 1505 1505 1506 1506 1507 1507 1507 1508 1508 1507 1507 1506 1506 1506 1505 1505 1504 1504 1504 1503 1503
1427 1429 1430 1431 1432 1432 1432 1432 1433 1434 1436 1438 1440 1442 1443 1445 1447 1449 1450 1452 1453 1455 1457 1458 1460 1461 1462 1464 1466 1468 1469 1470 1471 1471 1472 1473 1473 1474 1475 1476 1477 1478 1479 1480 1481 1482 1483 1485 1486 1487 1489 1490 1491 1492 1493 1494 1495 1496 1497 1498 1499 1500 1501 1502 1502 1503 1503 1504 1505 1505 1505 1505 1505 1505 1505 1504 1504 1504 1503 1503 1502 1502 1501 1501 1501
1426 1427 1428 1429 1430 1430 1431 1431 1432 1433 1434 1436 1438 1439 1441 1443 1445 1446 1448 1449 1451 1452 1454 1456 1457 1458 1460 1461 1463 1465 1466 1467 1468 1468 1469 1470 1470 1471 1472 1472 1473 1475 1476 1477 1478 1479 1480 1482 1483 1484 1485 1487 1488 1489 1490 1491 1493 1494 1494 1495 1496 1497 1498 1498 1499 1500 1501 1502 1502 1503 1503 1503 1503 1503 1502 1502 1502 1501 1501 1500 1500 1500 1499 1499 1499
1424 1425 1426 1427 1428 1428 1429 1430 1431 1432 1433 1435 1436 1438 1439 1441 1443 1444 1445 1446 1448 1450 1451 1453 1454 1455 1457 1459 1460 1462 1464 1464 1465 1466 1466 1467 1468 1468 1469 1469 1470 1472 1473 1474 1475 1476 1477 1478 1480 1481 1482 1484 1485 1486 1488 1489 1490 1491 1491 1492 1493 1493 1494 1495 1496 1497 1498 1499 1500 1500 1500 1500 1500 1500 1500 1500 1499 1499 1498 1498 1498 1498 1497 1497 1497
1421 1422 1423 1425 1426 1426 1427 1428 1430 1431 1432 1434 1435 1437 1438 1439 1441 1442 1443 1444 1445 1447 1449 1450 1451 1453 1454 1456 1457 1460 1461 1462 1462 1463 1464 1464 1465 1465 1466 1467 1468 1468 1470 1471 1472 1473 1474 1475 1476 1478 1479 1481 1482 1484 1485 1486 1487 1488 1489 1489 1490 1491 1491 1493 1494 1495 1495 1496 1497 1497 1498 1498 1498 1497 1497 1497 1497 1497 1496 1496 1496 1496 1495 1495 1494
1418 1419 1421 1422 1423 1424 1426 1427 1429 1430 1431 1432 1433 1435 1436 1438 1439 1440 1441 1442 1443 1445 1446 1447 1448 1450 1452 1453 1455 1457 1458 1459 1460 1460 1461 1462 1463 1463 1464 1464 1465 1466 1467 1468 1469 1470 1471 1472 1473 1475 1476 1478 1480 1481 1482 1483 1484 1485 1486 1487 1488 1488 1489 1490 1491 1491 1492 1493 1494 1494 1495 1495 1495 1495 1494 1494 1494 1494 1494 1493 1493 1493 1493 1492 1492
1416 1418 1419 1421 1421 1423 1424 1426 1427 1428 1429 1431 1432 1433 1434 1436 1437 1438 1439 1440 1441 1442 1443 1445 1446 1447 1449 1451 1452 1453 1455 1456 1457 1458 1459 1460 1460 1461 1462 1463 1463 1464 1464 1465 1466 1467 1467 1468 1470 1471 1473 1475 1476 1478 1479 1480 1481 1482 1483 1484 1485 1486 1487 1487 1488 1489 1489 1490 1491 1491 1492 1492 1492 1492 1492 1491 1491 1491 1491 1491 1491 1490 1490 1490 1489
1416 1417 1419 1420 1421 1422 1423 1424 1425 1426 1427 1429 1430 1431 1433 1434 1435 1436 1437 1437 1439 1440 1441 1443 1445 1446 1447 1448 1449 1451 1452 1454 1455 1456 1457 1457 1458 1459 1460 1460 1461 1462 1462 1462 1463 1464 1464 1465 1466 1468 1470 1472 1473 1475 1476 1478 1479 1479 1480 1482 1483 1483 1484 1485 1485 1486 1487 1487 1487 1488 1489 1489 1489 1489 1489 1489 1489 1488 1488 1488 1488 1488 1488 1487 1487
1415 1416 1417 1418 1419 1420 1421 1422 1423 1424 1425 1427 1428 1429 1431 1432 1433 1434 1435 1436 1437 1439 1441 1443 1444 1445 1445 1446 1447 1449 1450 1452 1453 1454 1454 1455 1456 1457 1458 1458 1458 1459 1459 1460 1460 1460 1461 1462 1463 1464 1466 1468 1470 1472 1474 1475 1476 1477 1478 1479 1480 1480 1481 1482 1483 1483 1484 1484 1484 1485 1485 1485 1485 1486 1486 1486 1486 1486 1485 1486 1486 1485 1485 1485 1484
1415 1415 1416 1417 1418 1419 1420 1421 1423 1424 1424 1425 1426 1428 1430 1432 1433 1433 1434 1435 1437 1438 1440 1441 1442 1443 1444 1445 1446 1447 1448 1449 1450 1451 1452 1453 1454 1455 1455 1456 1456 1456 1457 1458 1458 1458 1458 1459 1459 1461 1462 1464 1466 1469 1470 1472 1473 1474 1475 1476 1477 1477 1478 1479 1480 1480 1481 1481 1481 1482 1482 1482 1482 1482 1482 1482 1483 1483 1483 1483 1483 1482 1482 1482 1481
1414 1414 1415 1416 1417 1419 1420 1422 1423 1423 1423 1423 1425 1426 1428 1430 1431 1431 1432 1433 1435 1436 1438 1439 1440 1441 1443 1444 1445 1445 1446 1447 1448 1449 1450 1451 1452 1453 1453 1453 1453 1453 1454 1455 1456 1456 1456 1456 1457 1458 1459 1460 1462 1464 1466 1468 1470 1471 1472 1473 1474 1474 1475 1476 1476 1477 1478 1478 1478 1478 1479 1479 1479 1479 1479 1479 1479 1479 1479 1479 1479 1479 1479 1478 1478
1413 1413 1414 1415 1416 1418 1420 1421 1422 1423 1423 1423 1424 1425 1426 1427 1428 1429 1430 1431 1432 1433 1435 1436 1437 1438 1440 1441 1442 1443 1443 1444 1445 1446 1447 1448 1449 1450 1450 1451 1451 1451 1451 1452 1453 1453 1454 1455 1455 1456 1457 1458 1459 1461 1463 1464 1466 1467 1468 1469 1470 1471 1472 1473 1473 1474 1474 1475 1475 1475 1475 1475 1475 1476 1476 1476 1476 1476 1476 1476 1476 1476 1476 1475 1475
1412 1413 1414 1415 1416 1418 1419 1420 1421 1421 1422 1423 1423 1424 1425 1426 1426 1427 1428 1429 1430 1431 1432 1433 1434 1436 1437 1438 1439 1440 1441 1442 1443 1444 1445 1446 1447 1447 1448 1448 1449 1449 1449 1449 1450 1451 1452 1453 1453 1454 1455 1455 1456 1458 1459 1461 1462 1464 1465 1466 1467 1468 1469 1470 1470 1471 1471 1471 1472 1472 1472 1472 1472 1472 1472 1472 1473 1473 1473 1473 1472 1472 1472 1472 1471
1412 1413 1414 1415 1416 1417 1418 1418 1419 1420 1421 1422 1423 1423 1424 1424 1425 1426 1427 1427 1428 1429 1430 1431 1432 1433 1434 1435 1437 1438 1439 1440 1441 1441 1442 1443 1444 1445 1445 1445 1445 1445 1446 1447 1447 1448 1449 1450 1451 1452 1453 1454 1454 1456 1457 1458 1460 1461 1462 1463 1464 1465 1466 1467 1467 1467 1468 1468 1468 1468 1468 1468 1468 1469 1469 1469 1469 1469 1469 1469 1469 1469 1468 1468 1468